CAPELLA-10-WHITNEY (55909 NORAD) Tracking and Keplerian Element Data

This shows tracking and keplerian element data for the satellite.

Feedback or suggestion? Click here.




ElementValue
Catalog55909
NameCAPELLA-10-WHITNEY
Epoch Orbit763
Epoch Day127.10759023
Epoch Year2023
RAAN44.7035
Inclination44.004
Eccentricity0.0004548
Argument of Perigee187.6046
Mean Anonmoly172.474
Mean Motion14.91985271
Decay Rate0.00021106
L11 55909U 23035B 23127.10759023 .00021106 00000+0 20658-2 0 9995
L22 55909 44.0040 44.7035 0004548 187.6046 172.4740 14.91985271 7636



Live tracking and technical data element details for CAPELLA-10-WHITNEY (NORAD 55909). CAPELLA-10-WHITNEY can be tracked NOW for your location showing map with azimuth and elevation plus other details from your city location.







IsCatalogInMostPopularTable: catalog: 55909, numindb: 6
Update: records affected: 1



GetName: 55909 CAPELLA-10-WHITNEY

Hit Count: updated at: Tue, 06 Jun 2023 01:58:24 GMT